When you browse on this site, cookies collect data to enhance your experience and personalize the content and advertising you see.
Visit our Privacy Policy to learn more. By continuing to use the site, you agree to this use of cookies and data.
  • en France
  • Liste des pays
  • À 7 jours
  • Température de l'eau
  • Carte météo
  • Widgets météo
  • user-avatar
    Se connecter

    Météo par heure à Buenavista Tomatlán

    Ce jour, 21 Octobre, Lundi

    Heure Température Précipitation Vent Pression Humidité
    00:00 +21°C° 0 mm 0 m/s 719 mmHg 94%
    01:00 +21°C° 0 mm 0 m/s 719 mmHg 94%
    02:00 +20°C° 0 mm 0 m/s 719 mmHg 94%
    03:00 +20°C° 0 mm 0 m/s 719 mmHg 94%
    04:00 +20°C° 0 mm 0 m/s 719 mmHg 93%
    05:00 +20°C° 0 mm 0 m/s 719 mmHg 93%
    06:00 +21°C° 0 mm 0 m/s 720 mmHg 91%
    07:00 +22°C° 0 mm 0 m/s 720 mmHg 88%
    08:00 +24°C° 0 mm 0 m/s 721 mmHg 86%
    09:00 +25°C° 0 mm 0 m/s 721 mmHg 80%
    10:00 +29°C° 0 mm 1 m/s 720 mmHg 74%
    11:00 +31°C° 0 mm 1 m/s 720 mmHg 68%
    12:00 +31°C° 0 mm 1 m/s 720 mmHg 66%
    13:00 +32°C° 0 mm 1 m/s 719 mmHg 64%
    14:00 +32°C° 0 mm 1 m/s 719 mmHg 62%
    15:00 +28°C° 0 mm 0 m/s 718 mmHg 68%
    16:00 +27°C° 0 mm 0 m/s 718 mmHg 75%
    17:00 +25°C° 0 mm 0 m/s 718 mmHg 81%
    18:00 +26°C° 0 mm 1 m/s 719 mmHg 81%
    19:00 +26°C° 0 mm 1 m/s 719 mmHg 82%
    20:00 +25°C° 0 mm 1 m/s 720 mmHg 82%
    21:00 +24°C° 0 mm 1 m/s 720 mmHg 81%
    22:00 +24°C° 0 mm 1 m/s 720 mmHg 80%
    23:00 +24°C° 0 mm 1 m/s 720 mmHg 79%

    Demain, 22 Octobre, Mardi

    Heure Température Précipitation Vent Pression Humidité
    00:00 +23°C° 0 mm 1 m/s 720 mmHg 79%
    01:00 +23°C° 0 mm 1 m/s 720 mmHg 78%
    02:00 +23°C° 0 mm 1 m/s 719 mmHg 78%
    03:00 +23°C° 0 mm 1 m/s 719 mmHg 79%
    04:00 +22°C° 0 mm 1 m/s 719 mmHg 79%
    05:00 +22°C° 0 mm 1 m/s 719 mmHg 80%
    06:00 +22°C° 0 mm 0 m/s 720 mmHg 77%
    07:00 +23°C° 0 mm 0 m/s 720 mmHg 75%
    08:00 +25°C° 0 mm 0 m/s 721 mmHg 73%
    09:00 +26°C° 0 mm 0 m/s 720 mmHg 69%
    10:00 +30°C° 0 mm 1 m/s 720 mmHg 66%
    11:00 +31°C° 0 mm 1 m/s 720 mmHg 63%
    12:00 +32°C° 0.2 mm 1 m/s 719 mmHg 62%
    13:00 +32°C° 0.2 mm 1 m/s 718 mmHg 61%
    14:00 +32°C° 0.2 mm 1 m/s 717 mmHg 61%
    15:00 +31°C° 0.1 mm 1 m/s 717 mmHg 67%
    16:00 +27°C° 0.1 mm 0 m/s 718 mmHg 73%
    17:00 +26°C° 0.1 mm 0 m/s 718 mmHg 79%
    18:00 +25°C° 0.1 mm 0 m/s 718 mmHg 80%
    19:00 +27°C° 0.1 mm 1 m/s 719 mmHg 80%
    20:00 +26°C° 0.1 mm 1 m/s 719 mmHg 81%
    21:00 +25°C° 0.2 mm 1 m/s 720 mmHg 81%
    22:00 +25°C° 0.2 mm 1 m/s 720 mmHg 82%
    23:00 +25°C° 0.2 mm 1 m/s 720 mmHg 82%

    Après-demain, 23 Octobre, Mercredi

    Heure Température Précipitation Vent Pression Humidité
    00:00 +24°C° 0.6 mm 1 m/s 720 mmHg 84%
    01:00 +24°C° 0.6 mm 1 m/s 719 mmHg 86%
    02:00 +24°C° 0.6 mm 1 m/s 719 mmHg 87%
    03:00 +23°C° 0.1 mm 1 m/s 719 mmHg 88%
    04:00 +23°C° 0.1 mm 1 m/s 719 mmHg 88%
    05:00 +21°C° 0.1 mm 0 m/s 719 mmHg 89%
    06:00 +22°C° 0 mm 0 m/s 719 mmHg 86%
    07:00 +24°C° 0 mm 0 m/s 720 mmHg 83%
    08:00 +25°C° 0 mm 0 m/s 720 mmHg 80%
    09:00 +26°C° 0.2 mm 0 m/s 720 mmHg 75%
    10:00 +30°C° 0.2 mm 1 m/s 720 mmHg 71%
    11:00 +32°C° 0.2 mm 1 m/s 720 mmHg 66%
    12:00 +32°C° 0.4 mm 1 m/s 719 mmHg 64%
    13:00 +32°C° 0.4 mm 1 m/s 718 mmHg 62%
    14:00 +32°C° 0.4 mm 1 m/s 717 mmHg 60%
    15:00 +31°C° 0.2 mm 1 m/s 717 mmHg 66%
    16:00 +28°C° 0.2 mm 0 m/s 717 mmHg 71%
    17:00 +26°C° 0.2 mm 0 m/s 717 mmHg 76%
    18:00 +26°C° 0.3 mm 0 m/s 718 mmHg 77%
    19:00 +27°C° 0.3 mm 1 m/s 718 mmHg 78%
    20:00 +26°C° 0.3 mm 1 m/s 719 mmHg 80%
    21:00 +26°C° 0.2 mm 1 m/s 719 mmHg 80%
    22:00 +25°C° 0.2 mm 1 m/s 719 mmHg 80%
    23:00 +25°C° 0.2 mm 1 m/s 719 mmHg 81%

    24 Octobre, Jeudi

    Heure Température Précipitation Vent Pression Humidité
    00:00 +25°C° 0.8 mm 1 m/s 719 mmHg 83%
    01:00 +22°C° 0.8 mm 0 m/s 718 mmHg 86%
    02:00 +22°C° 0.8 mm 0 m/s 718 mmHg 88%
    03:00 +22°C° 0.3 mm 0 m/s 718 mmHg 89%
    04:00 +22°C° 0.3 mm 0 m/s 718 mmHg 90%
    05:00 +22°C° 0.3 mm 0 m/s 718 mmHg 91%
    06:00 +22°C° 0.1 mm 0 m/s 719 mmHg 90%
    07:00 +23°C° 0.1 mm 0 m/s 719 mmHg 89%
    08:00 +24°C° 0.1 mm 0 m/s 720 mmHg 88%
    09:00 +25°C° 0.1 mm 0 m/s 719 mmHg 81%
    10:00 +27°C° 0.1 mm 0 m/s 719 mmHg 74%
    11:00 +31°C° 0.1 mm 1 m/s 719 mmHg 67%
    12:00 +31°C° 0.2 mm 1 m/s 718 mmHg 65%
    13:00 +31°C° 0.2 mm 1 m/s 717 mmHg 64%
    14:00 +32°C° 0.2 mm 1 m/s 717 mmHg 63%
    15:00 +30°C° 0.5 mm 1 m/s 717 mmHg 69%
    16:00 +29°C° 0.5 mm 1 m/s 717 mmHg 75%
    17:00 +26°C° 0.5 mm 0 m/s 717 mmHg 82%
    18:00 +27°C° 1.2 mm 1 m/s 718 mmHg 83%
    19:00 +26°C° 1.2 mm 1 m/s 718 mmHg 85%
    20:00 +25°C° 1.2 mm 1 m/s 719 mmHg 87%
    21:00 +25°C° 1.2 mm 1 m/s 719 mmHg 89%
    22:00 +25°C° 1.2 mm 1 m/s 719 mmHg 90%
    23:00 +24°C° 1.2 mm 1 m/s 719 mmHg 91%

    25 Octobre, Vendredi

    Heure Température Précipitation Vent Pression Humidité
    00:00 +22°C° 0.1 mm 0 m/s 718 mmHg 92%
    01:00 +22°C° 0.1 mm 0 m/s 718 mmHg 92%
    02:00 +22°C° 0.1 mm 0 m/s 718 mmHg 92%
    03:00 +22°C° 0 mm 0 m/s 718 mmHg 92%
    04:00 +21°C° 0 mm 0 m/s 718 mmHg 93%
    05:00 +21°C° 0 mm 0 m/s 718 mmHg 93%
    06:00 +22°C° 0 mm 0 m/s 719 mmHg 90%
    07:00 +23°C° 0 mm 0 m/s 719 mmHg 87%
    08:00 +25°C° 0 mm 0 m/s 720 mmHg 84%
    09:00 +26°C° 0.3 mm 0 m/s 720 mmHg 78%
    10:00 +30°C° 0.3 mm 1 m/s 719 mmHg 72%
    11:00 +31°C° 0.3 mm 1 m/s 719 mmHg 66%
    12:00 +31°C° 0.4 mm 1 m/s 719 mmHg 66%
    13:00 +31°C° 0.4 mm 1 m/s 718 mmHg 66%
    14:00 +31°C° 0.4 mm 1 m/s 717 mmHg 65%
    15:00 +30°C° 0.7 mm 1 m/s 717 mmHg 71%
    16:00 +27°C° 0.7 mm 0 m/s 717 mmHg 76%
    17:00 +25°C° 0.7 mm 0 m/s 717 mmHg 82%
    18:00 +25°C° 1.1 mm 0 m/s 718 mmHg 83%
    19:00 +26°C° 1.1 mm 1 m/s 718 mmHg 85%
    20:00 +25°C° 1.1 mm 1 m/s 719 mmHg 86%
    21:00 +25°C° 1.2 mm 1 m/s 719 mmHg 87%
    22:00 +24°C° 1.2 mm 1 m/s 719 mmHg 88%
    23:00 +24°C° 1.2 mm 1 m/s 719 mmHg 89%

    26 Octobre, Samedi

    Heure Température Précipitation Vent Pression Humidité
    00:00 +23°C° 1.3 mm 1 m/s 719 mmHg 90%
    01:00 +23°C° 1.3 mm 1 m/s 719 mmHg 91%
    02:00 +23°C° 1.3 mm 1 m/s 718 mmHg 92%
    03:00 +21°C° 0.4 mm 0 m/s 718 mmHg 92%
    04:00 +20°C° 0.4 mm 0 m/s 718 mmHg 92%
    05:00 +20°C° 0.4 mm 0 m/s 718 mmHg 92%
    06:00 +21°C° 0.4 mm 0 m/s 719 mmHg 91%
    07:00 +22°C° 0.4 mm 0 m/s 720 mmHg 89%
    08:00 +23°C° 0.4 mm 0 m/s 721 mmHg 88%
    09:00 +25°C° 0.4 mm 0 m/s 720 mmHg 82%
    10:00 +28°C° 0.4 mm 1 m/s 720 mmHg 76%
    11:00 +30°C° 0.4 mm 1 m/s 720 mmHg 70%
    12:00 +30°C° 0.6 mm 1 m/s 719 mmHg 69%
    13:00 +30°C° 0.6 mm 1 m/s 719 mmHg 68%
    14:00 +30°C° 0.6 mm 1 m/s 718 mmHg 67%
    15:00 +29°C° 1.2 mm 1 m/s 718 mmHg 73%
    16:00 +26°C° 1.2 mm 0 m/s 718 mmHg 79%
    17:00 +25°C° 1.2 mm 0 m/s 718 mmHg 84%
    18:00 +24°C° 2.3 mm 0 m/s 719 mmHg 87%
    19:00 +25°C° 2.3 mm 1 m/s 719 mmHg 89%
    20:00 +24°C° 2.3 mm 1 m/s 719 mmHg 91%
    21:00 +23°C° 1.4 mm 1 m/s 720 mmHg 92%
    22:00 +23°C° 1.4 mm 1 m/s 720 mmHg 92%
    23:00 +21°C° 1.4 mm 0 m/s 720 mmHg 93%

    27 Octobre, Dimanche

    Heure Température Précipitation Vent Pression Humidité
    00:00 +21°C° 0.2 mm 0 m/s 720 mmHg 93%
    01:00 +20°C° 0.2 mm 0 m/s 719 mmHg 93%
    02:00 +20°C° 0.2 mm 0 m/s 719 mmHg 93%
    03:00 +20°C° 0 mm 0 m/s 719 mmHg 93%
    04:00 +20°C° 0 mm 0 m/s 719 mmHg 93%
    05:00 +20°C° 0 mm 0 m/s 719 mmHg 93%
    06:00 +21°C° 0 mm 0 m/s 720 mmHg 90%
    07:00 +22°C° 0 mm 0 m/s 720 mmHg 87%
    08:00 +24°C° 0 mm 0 m/s 721 mmHg 85%
    09:00 +25°C° 0.1 mm 0 m/s 721 mmHg 79%
    10:00 +29°C° 0.1 mm 1 m/s 720 mmHg 73%
    11:00 +31°C° 0.1 mm 1 m/s 720 mmHg 68%
    12:00 +31°C° 0.1 mm 1 m/s 720 mmHg 66%
    13:00 +31°C° 0.1 mm 1 m/s 719 mmHg 65%
    14:00 +31°C° 0.1 mm 1 m/s 718 mmHg 64%
    15:00 +30°C° 0.1 mm 1 m/s 718 mmHg 70%
    16:00 +26°C° 0.1 mm 0 m/s 718 mmHg 76%
    17:00 +25°C° 0.1 mm 0 m/s 718 mmHg 82%
    18:00 +24°C° 0 mm 0 m/s 719 mmHg 83%
    19:00 +25°C° 0 mm 1 m/s 719 mmHg 84%
    20:00 +25°C° 0 mm 1 m/s 720 mmHg 85%
    21:00 +24°C° 0 mm 1 m/s 720 mmHg 85%
    22:00 +24°C° 0 mm 1 m/s 720 mmHg 85%
    23:00 +24°C° 0 mm 1 m/s 719 mmHg 85%
    Voir plus